小惑星2006 QL39

2006 QL39

English version
Home page
Total 6,336 html files since Dec. 4, 1995
Updated on April 26, 2008

---------------------------------------------------------------------

・ プロフィール

符号 2006 QL39

・ 軌道要素

The following orbital elements are taken from MPO118177

Epoch 2007 Apr. 10.0 TT = JDT 2454200.5                 MPC
M   4.28116              (2000.0)            P               Q
n   0.08485330     Peri.  254.10181     +0.39381439     -0.91869587
a   5.1288922      Node   172.49473     +0.90666219     +0.38284393
e   0.5999869      Incl.   13.33906     +0.15124121     +0.09710006
P  11.6            H   13.6           G   0.15           U   2
From 372 observations 2006 July 21-2007 Mar. 4, mean residual 0".31.

・ 星図

・ 光度変化

        H = 13.7  G = 0.15

---------------------------------------------------------------------

軌道要素はMPCのEphemerides and Orbital Elementsに掲載されたものです。
星図は StellaNavigator Ver.2.0 for Windows (アストロアーツ 編著 / アスキー出版局刊) で作成したものです。
光度グラフはComet for Windowsで作成したものです。

---------------------------------------------------------------------

Copyright(C) 1995-2008 Seiichi Yoshida (comet@aerith.net). All rights reserved.